Regional Weather Roundup
Issued by NWS Spokane, WA

Home | Current Version | Previous Version | Text Only | Print | Product List | Glossary On
Versions: 1 2 3 4 5 6 7 8 9 10 11 12 13 14 15 16 17 18 19 20 21 22 23 24 25 26 27 28 29 30 31 32 33 34 35 36 37 38 39 40 41 42 43 44 45 46 47 48 49 50
000
NZUS01 KOTX 281210
RWROTX
EASTERN WASHINGTON/NORTHERN IDAHO ROUNDUP
NATIONAL WEATHER SERVICE, SPOKANE WA
500 AM PDT MON JUL 28 2014

Note: "fair" indicated few or no clouds below 12,000 feet with no
significant weather and/or obstructions to visibility.

...NORTHEAST WASHINGTON AND NORTHERN IDAHO PANHANDLE...

CITY           SKY/WX    TMP DP  RH WIND       PRES   REMARKS
SPOKANE INTL   CLOUDY    70  45  40 SE5       30.12R
SPOKANE DOWNTO CLOUDY    65  49  56 CALM      30.12R
COEUR D ALENE  CLOUDY    64  50  59 SE8       30.13S
DEER PARK      LGT RAIN  80  42  25 SE5       30.10F
SANDPOINT      CLOUDY    59  50  72 CALM      30.15R

...SOUTHEAST WASHINGTON AND SOUTHERN IDAHO PANHANDLE...

CITY           SKY/WX    TMP DP  RH WIND       PRES   REMARKS
WALLA WALLA    CLOUDY    74  45  35 E7        30.02R
PULLMAN/MOSCOW MOCLDY    57  49  74 CALM      30.13R
LEWISTON       PTCLDY    70  41  34 SE6       30.05R
LOWELL           N/A     58  52  80 NW3       30.12R

...COLUMBIA BASIN...

CITY           SKY/WX    TMP DP  RH WIND       PRES   REMARKS
EPHRATA        PTCLDY    74  38  27 NW8       30.01S
MOSES LAKE     MOCLDY    67  39  35 N5        30.02R
TRI CITIES     CLOUDY    68  57  68 N3        29.96S
HERMISTON      MOCLDY    68  46  45 SW3       29.98R
PENDLETON      MOCLDY    68  42  38 SE7       30.02S

...EAST SLOPES CASCADES...

CITY           SKY/WX    TMP DP  RH WIND       PRES   REMARKS
THE DALLES     CLEAR     68  59  73 NW6       30.00R
YAKIMA         CLEAR     67  51  56 W9        30.04R
ELLENSBURG     CLEAR     60  52  74 NE5       30.08R
WENATCHEE      CLEAR     70  50  49 W9        30.05R
OMAK           PTCLDY    70  39  32 N12       30.07R

...SOUTHERN BRITISH COLUMBIA...

CITY           SKY/WX    TMP DP  RH WIND       PRES   REMARKS
PENTICTON      PTCLDY    61  48  63 N8        30.11R
CRANBROOK      MOCLDY    59  43  55 W6        30.23R

...WESTERN MONTANA...

CITY           SKY/WX    TMP DP  RH WIND       PRES   REMARKS
MISSOULA       PTCLDY    58  43  57 N3        30.20R

...NEIGHBORING CITIES...

CITY           SKY/WX    TMP DP  RH WIND       PRES   REMARKS
SEATTLE        CLEAR     59  28  30 N6        30.11S
CALGARY        PTCLDY    50  45  81 NW6       30.25S



USA.gov is the U.S. government's official web portal to all federal, state and local government web resources and services.